Theta_e
311 319 321 320 319 330 326 327 332 336 339 341 340 342 347 340 333 329 330 330 332 333 332 332 332 332 334 333 337 341 340 342 343 343 341 343 345 346 345 345 345 344 343 344 344 346 348 344 347 347 344 342 345 343 341 338 341 346 342 342 341 338 338 337 337 345 342 339 341 340 343 346 344 346 346 345 344 347 338 338 337 338 338 337 337
312 314 319 327 319 325 330 327 333 331 333 336 339 340 344 339 334 329 330 331 333 332 331 333 334 334 332 332 337 341 340 339 340 342 341 344 345 345 345 345 345 344 343 343 344 344 347 346 348 344 343 342 347 345 343 346 346 345 343 343 346 340 338 339 340 342 339 334 333 337 341 343 342 343 345 346 345 344 338 334 335 337 338 337 337
309 312 317 321 321 321 326 327 329 330 331 333 336 340 342 342 336 333 334 333 334 334 333 334 335 336 335 335 339 341 342 342 341 343 343 344 345 346 346 345 345 344 343 343 344 344 345 347 348 343 346 343 345 341 342 345 345 344 342 342 342 343 342 346 343 342 336 339 338 335 330 331 341 343 348 346 344 342 339 334 337 337 338 337 337
309 310 311 316 321 318 320 322 323 326 327 330 334 336 339 346 339 338 337 335 334 334 336 337 337 338 341 342 341 342 340 342 343 344 343 344 344 347 346 345 345 343 342 343 342 343 344 346 349 343 345 344 345 340 341 343 343 343 341 341 342 336 336 340 345 346 340 339 330 331 332 331 325 332 337 342 345 342 340 336 334 336 337 337 337
309 310 312 312 315 319 319 321 323 325 327 328 333 335 336 346 343 340 338 336 335 336 337 338 339 336 336 336 336 338 339 341 340 339 341 342 342 345 344 344 344 343 342 342 341 343 345 347 347 346 345 346 346 343 341 342 344 342 341 342 342 339 334 338 343 347 346 346 339 333 329 327 328 334 334 337 341 341 342 340 333 334 334 337 337
310 310 311 313 313 316 321 322 321 322 327 331 335 337 337 341 344 343 341 339 338 338 338 339 337 335 333 331 329 331 330 335 336 335 337 338 339 343 343 343 343 343 343 343 342 343 345 348 349 348 345 349 346 345 344 344 345 342 342 343 341 343 344 342 340 344 346 346 346 345 341 332 330 334 330 326 337 343 342 340 338 333 334 335 336
310 311 311 311 314 314 316 318 318 318 322 331 335 337 338 339 345 344 342 339 339 339 339 338 332 333 332 332 330 329 331 333 339 340 339 339 341 342 342 343 343 342 342 343 342 343 344 346 350 348 345 350 347 347 345 344 344 342 342 341 340 340 342 338 342 342 345 346 346 345 345 345 342 335 328 330 327 336 341 341 339 339 334 334 333
310 310 311 312 313 314 315 317 318 317 322 328 332 335 337 336 347 344 343 340 340 341 339 332 330 331 331 331 332 333 329 330 335 340 342 342 341 341 341 342 342 343 342 343 342 343 343 346 349 348 345 348 347 347 346 345 344 345 344 343 344 345 342 340 341 342 338 339 342 342 342 343 343 342 339 333 329 325 332 338 342 340 337 333 333
309 309 310 311 313 313 314 316 319 319 321 326 329 332 337 338 345 345 342 341 342 342 336 334 333 331 331 332 332 334 333 331 333 335 341 342 341 341 341 341 342 343 343 342 343 344 345 346 348 348 347 346 345 346 348 346 344 344 347 347 343 347 347 343 343 342 342 341 340 339 340 340 340 340 339 338 332 328 328 331 334 341 340 338 335
309 309 310 312 313 315 315 316 319 320 322 327 329 332 336 338 337 346 343 342 343 341 337 335 333 332 331 332 332 332 333 333 335 332 336 342 340 340 340 340 341 342 343 343 343 345 346 347 348 348 349 346 345 345 347 347 346 346 348 349 350 348 347 348 344 344 346 345 343 342 337 338 337 336 336 335 336 334 328 330 333 333 331 335 334
308 310 311 311 313 315 317 316 317 320 322 325 328 330 335 337 336 339 345 344 343 341 338 336 334 334 333 333 333 332 332 332 331 331 335 340 339 339 340 340 342 341 342 343 344 345 346 347 348 348 349 347 345 345 344 345 347 348 351 349 350 348 348 346 347 347 347 345 344 342 341 339 337 335 334 336 334 333 331 332 334 334 333 333 337
308 309 308 311 312 314 316 316 317 318 321 323 325 327 332 335 336 335 342 344 342 341 339 336 335 335 335 335 333 333 333 332 333 334 338 338 339 338 341 341 341 342 343 343 344 345 346 346 348 348 349 347 345 346 345 345 348 347 350 349 348 349 349 347 347 345 345 345 345 344 343 343 342 338 338 340 337 337 336 332 333 334 334 334 337
308 308 309 311 311 312 313 314 316 317 320 324 324 327 330 334 335 334 338 344 342 341 339 337 336 335 334 335 335 335 336 336 337 338 339 338 339 339 340 339 341 341 341 342 344 345 346 346 346 347 347 348 346 346 347 345 346 347 348 348 349 347 347 347 346 345 345 344 343 345 344 344 341 343 343 341 343 342 339 334 335 335 330 332 335
309 309 309 311 313 312 313 314 315 317 318 323 327 327 329 331 334 334 333 344 343 340 339 337 336 335 333 333 337 337 337 339 339 339 340 340 340 340 341 341 341 341 341 342 345 346 346 347 347 347 348 348 348 347 347 346 347 346 347 347 346 347 347 346 346 346 346 346 346 344 343 341 342 345 346 344 340 340 339 336 335 335 333 330 332
306 308 309 311 314 315 314 315 315 316 318 318 324 327 327 329 332 332 332 342 342 340 338 337 335 334 332 332 333 336 339 340 340 341 341 341 341 341 341 343 342 343 342 344 346 345 346 348 348 347 347 348 348 347 347 346 347 346 346 347 346 347 346 347 344 345 345 345 345 344 345 343 344 344 345 344 346 345 341 338 335 328 328 331 329
305 307 310 312 312 314 315 315 316 316 318 319 320 325 327 328 331 332 332 340 338 337 336 335 334 333 333 333 336 338 340 341 341 341 342 343 342 342 342 343 344 344 344 345 346 345 347 347 348 347 348 348 348 347 346 345 346 346 346 346 346 347 346 345 345 346 344 345 345 345 343 343 346 346 348 348 347 347 344 344 340 333 326 323 327
306 305 307 312 312 313 314 315 317 318 319 320 319 321 326 328 330 331 332 339 337 336 336 335 333 333 333 335 336 336 338 340 340 342 342 343 343 343 343 344 345 346 345 346 346 345 347 347 347 347 348 349 348 347 345 344 346 345 346 346 344 344 345 344 345 344 345 345 345 344 343 344 345 348 345 346 347 345 347 345 342 336 333 326 322
309 307 308 310 313 314 315 316 317 319 320 322 324 324 326 329 330 330 331 336 337 337 336 335 334 333 333 335 336 336 337 339 341 343 344 343 344 344 344 344 345 346 346 347 346 344 347 348 347 347 348 349 348 347 346 344 345 345 346 346 344 345 344 345 346 344 345 345 344 345 344 344 345 346 345 346 344 345 346 344 343 342 338 330 326
307 309 307 310 313 312 314 317 317 320 322 322 322 326 328 329 331 330 331 337 337 337 335 336 335 333 334 335 336 336 337 338 341 343 344 344 344 345 344 345 347 346 346 347 346 344 347 347 348 347 347 347 348 347 345 345 346 346 346 345 345 345 344 344 345 344 345 346 344 343 344 343 346 346 345 344 344 343 345 344 343 343 336 336 330
307 308 309 308 312 312 312 316 316 318 319 320 321 322 325 329 330 330 333 339 338 338 336 335 335 335 334 335 335 336 336 337 339 342 344 340 335 337 342 345 346 347 347 348 346 345 347 346 347 346 345 347 347 347 346 345 346 346 345 345 344 343 343 342 343 345 346 345 344 342 343 344 345 345 344 344 344 344 342 341 342 340 337 336 334
306 308 308 310 311 312 314 318 317 317 318 320 321 322 324 327 330 330 328 337 338 339 337 337 336 336 335 334 334 335 335 336 339 341 342 335 333 330 330 335 344 346 346 346 347 346 346 345 345 345 345 346 346 346 347 345 346 346 345 345 344 343 341 341 342 342 343 344 343 342 342 344 345 343 342 343 343 342 341 345 341 342 339 335 333
306 308 309 310 311 313 314 316 316 316 316 317 320 322 324 325 327 329 331 336 338 338 338 339 339 337 336 336 335 335 335 336 338 339 338 337 334 334 334 334 335 342 346 346 346 346 345 344 344 344 345 346 346 346 347 345 346 345 345 345 344 342 340 340 340 339 341 343 343 341 341 342 343 343 343 341 342 341 340 338 336 336 334 336 336
305 307 309 310 311 314 315 314 315 315 316 319 323 323 326 332 331 330 328 333 339 339 340 340 339 338 338 337 336 336 336 336 336 337 336 336 334 333 335 335 335 335 343 347 347 346 345 344 344 344 346 346 346 346 346 345 345 345 344 343 344 342 340 339 339 339 340 341 341 341 341 342 343 342 343 341 342 340 339 336 336 334 334 334 334
306 307 310 310 312 314 314 314 314 315 317 317 318 321 328 330 332 331 328 332 333 338 341 339 338 337 337 336 336 336 337 335 334 336 336 336 336 335 336 336 336 336 337 344 346 345 345 344 345 345 347 345 346 346 346 346 345 344 343 343 343 343 342 340 340 339 338 341 340 340 341 342 342 341 342 341 341 341 340 338 335 336 334 332 334
305 306 308 310 311 311 312 311 312 312 313 315 318 319 321 323 324 326 329 331 333 336 339 339 337 335 336 335 334 335 335 335 334 335 336 336 336 335 336 336 336 336 336 336 345 346 346 345 345 345 345 346 346 346 345 345 345 345 344 343 342 342 341 341 340 339 341 340 340 340 341 342 341 340 340 340 340 339 338 337 335 334 332 333 333
305 305 307 308 310 310 312 313 311 311 311 313 316 319 320 320 320 321 323 326 329 330 339 337 336 335 335 334 333 333 334 335 335 336 336 337 337 336 335 336 337 336 335 336 339 346 346 344 346 345 346 346 347 347 345 344 344 344 344 343 343 342 341 340 340 340 340 340 340 340 342 341 341 340 339 340 339 339 338 336 334 333 332 332 331
305 306 306 309 310 310 311 312 312 313 312 311 314 320 319 321 324 323 325 325 326 324 328 336 336 335 334 333 333 333 334 335 336 336 337 337 336 337 337 338 338 336 336 335 336 341 346 344 345 346 346 346 346 346 345 344 344 344 344 343 343 342 341 340 340 340 340 340 341 341 342 342 341 340 340 340 340 338 338 335 334 334 332 332 330
304 305 306 307 309 311 312 312 313 313 312 312 313 318 318 317 320 321 322 323 325 324 322 326 334 335 333 332 333 335 335 336 336 337 337 338 338 338 338 339 339 339 337 337 336 341 345 345 344 345 346 346 346 344 344 345 344 344 344 344 344 342 341 340 340 340 340 341 342 341 342 342 342 342 341 341 340 338 337 335 335 334 332 330 330
304 305 306 307 308 311 312 311 312 314 313 316 314 314 317 321 323 320 320 320 324 325 324 323 326 332 333 332 333 334 334 336 337 337 337 337 337 338 338 338 339 339 339 338 337 339 344 345 344 345 345 346 345 344 345 344 344 344 344 344 344 343 341 340 340 340 341 341 342 342 342 342 342 341 331 331 332 336 340 333 334 333 331 330 328
306 305 306 307 309 310 312 314 312 313 313 314 314 313 316 318 320 322 323 321 323 324 327 329 330 332 334 335 334 334 334 336 336 336 336 336 337 337 337 337 337 336 336 335 335 334 332 340 343 343 345 346 345 346 339 330 332 343 344 344 343 342 341 340 340 339 340 341 341 342 343 338 325 324 318 311 309 313 321 331 332 332 331 329 328
305 308 307 309 309 310 311 312 312 312 312 313 314 314 316 317 320 323 322 321 322 325 326 328 331 333 335 336 336 336 335 335 335 335 336 336 336 337 337 337 336 333 333 333 332 333 334 333 339 343 344 345 346 345 322 314 318 324 342 344 343 342 341 340 340 339 339 340 340 341 333 328 324 319 312 304 304 304 304 303 304 307 314 329 328
304 306 308 307 308 310 310 311 313 313 314 313 314 316 316 317 321 323 324 323 324 326 327 328 331 333 334 336 336 336 335 336 336 335 335 335 336 336 336 335 333 329 331 334 333 334 334 333 334 340 343 343 345 327 309 310 312 315 327 343 343 342 341 340 340 340 340 340 339 338 334 333 331 324 316 312 307 302 300 299 299 299 299 299 309
304 306 307 309 307 308 311 313 315 313 313 314 315 315 315 316 320 322 325 325 326 328 329 331 332 333 327 328 329 334 335 335 335 335 335 335 335 336 335 335 334 334 334 334 333 334 334 334 334 336 341 343 343 310 308 308 309 310 315 333 343 342 341 340 340 340 340 339 339 339 336 337 332 327 326 321 315 310 304 303 302 303 301 300 296
305 307 308 309 309 309 311 313 315 315 315 315 315 316 317 318 320 320 323 322 321 326 329 330 329 329 326 329 323 325 329 335 336 335 335 334 333 335 336 336 335 335 335 333 332 332 333 334 335 338 342 344 343 311 307 307 307 306 307 322 342 342 341 341 341 341 341 340 340 339 337 336 330 330 330 325 322 318 316 315 317 319 315 308 301
306 308 309 310 310 311 311 313 315 316 315 317 316 316 319 318 318 319 320 325 327 325 324 327 327 326 330 329 329 332 334 336 335 335 335 334 333 333 334 335 334 334 334 334 334 333 333 333 336 341 341 343 341 305 305 305 305 305 306 321 342 342 342 341 341 341 341 341 340 341 339 335 331 332 332 328 326 323 322 322 322 323 322 321 315
309 309 310 311 311 311 312 313 316 318 316 315 315 317 317 316 318 317 319 321 322 322 324 325 324 325 327 328 329 331 334 335 334 334 334 333 333 332 331 332 334 334 334 335 335 336 334 335 339 342 341 341 336 302 305 304 305 305 307 337 342 342 341 341 342 342 342 341 340 342 339 335 334 334 323 313 320 326 325 323 322 323 318 312 306
311 312 312 313 313 313 313 316 318 318 317 316 316 317 317 317 318 317 317 317 319 321 322 322 323 327 329 331 333 333 334 335 334 333 332 332 331 332 331 332 333 333 333 333 333 335 337 339 340 342 341 342 333 307 305 303 304 302 314 339 341 340 340 340 340 341 341 340 340 342 339 337 335 332 312 307 309 318 325 323 323 322 318 314 310
312 313 314 314 314 314 316 318 318 318 319 317 318 318 316 315 317 316 315 317 319 318 321 322 323 324 329 332 335 335 334 333 333 332 331 330 331 332 331 332 331 331 332 333 334 336 338 339 341 341 342 342 337 313 302 304 304 303 322 339 340 339 338 339 339 340 339 339 339 338 339 338 335 328 304 305 305 319 325 324 323 319 316 312 311
312 313 313 313 314 315 316 318 319 317 319 319 319 320 317 316 316 316 315 316 319 319 321 320 322 324 326 331 335 335 334 333 332 331 330 329 329 329 330 330 331 332 330 333 334 336 337 339 342 342 336 342 340 318 300 304 303 304 322 340 339 338 337 337 337 337 338 337 338 335 332 332 333 317 302 304 303 319 327 325 324 318 315 312 311
312 312 313 315 316 316 315 316 318 320 322 320 320 319 317 317 315 318 316 317 320 321 321 321 323 324 327 334 335 335 336 334 333 332 330 329 329 329 330 329 330 330 330 332 335 335 338 339 341 343 343 343 341 326 307 301 304 304 313 339 339 337 335 336 337 336 336 336 338 335 326 312 307 303 302 303 302 306 326 327 326 320 316 313 313
310 309 309 311 313 314 316 319 321 321 319 318 318 318 318 318 318 317 318 320 323 323 322 321 323 326 327 330 332 334 336 335 334 332 330 330 331 329 330 329 329 329 330 331 335 335 337 338 341 343 343 344 342 327 311 300 302 304 308 320 339 337 336 337 337 334 335 335 334 330 322 306 303 301 302 302 303 302 307 327 328 324 321 314 310
310 309 310 311 312 312 315 320 325 322 321 322 320 319 319 319 318 318 321 322 323 321 322 326 323 323 324 326 332 337 337 337 336 333 330 330 330 331 331 332 331 331 333 335 334 334 336 338 340 342 342 343 336 322 319 300 300 302 305 309 334 338 336 337 336 335 335 335 334 326 318 306 301 302 302 302 302 302 299 321 324 306 301 302 314
308 308 309 309 312 313 313 316 324 323 323 325 325 321 321 320 320 320 322 322 322 322 320 322 322 324 325 329 333 335 334 335 334 333 332 330 330 330 329 328 328 329 332 335 335 336 336 337 338 340 341 342 335 323 310 307 300 301 303 305 312 324 308 340 337 335 335 335 334 326 314 302 299 300 300 299 299 298 307 312 295 296 301 301 309
307 308 307 309 314 315 314 317 319 320 323 325 324 320 323 323 324 326 332 326 322 324 326 329 323 323 327 332 331 333 334 333 332 330 330 330 329 328 327 326 326 327 329 329 331 335 337 334 332 334 335 337 333 327 309 306 305 298 301 304 302 295 299 319 334 337 336 335 331 321 309 297 298 297 298 298 299 304 307 295 297 299 300 305 318
306 306 307 310 311 312 313 314 316 321 320 317 324 321 320 324 327 327 323 324 329 332 327 323 323 325 324 330 332 334 335 334 333 330 327 327 327 327 324 324 325 326 327 327 328 330 330 328 327 327 327 330 328 325 318 307 301 300 300 301 299 298 294 301 333 340 337 333 313 303 296 296 297 297 296 297 298 299 296 296 297 299 312 316 316
305 305 306 308 310 311 314 313 314 321 321 322 320 322 321 325 324 325 325 328 323 329 327 323 322 323 328 329 331 333 335 335 335 332 328 328 327 326 327 327 328 328 327 327 327 327 326 326 327 328 327 330 330 325 321 316 306 303 301 299 299 301 302 296 304 312 300 299 297 295 295 295 296 299 307 309 308 304 296 296 297 305 316 314 313
302 303 305 306 306 307 309 310 313 315 317 320 327 322 323 323 323 322 322 325 324 324 323 323 323 323 328 330 328 330 332 333 333 333 333 331 327 327 328 327 328 328 326 326 327 326 324 323 322 324 326 329 329 328 324 320 315 312 312 305 306 304 298 300 306 304 301 300 298 301 301 300 301 300 301 300 300 297 301 305 309 313 313 313 313
303 303 304 305 304 306 306 307 310 312 314 320 319 322 323 324 324 324 326 325 325 327 325 322 323 319 318 329 330 315 325 332 332 332 331 331 331 329 331 330 329 327 326 325 326 323 323 323 323 325 325 327 328 329 327 322 320 319 316 313 315 313 318 319 314 310 306 305 303 299 301 306 308 308 307 306 307 309 308 306 310 310 311 308 307
301 302 303 303 304 304 305 306 308 310 311 314 317 319 322 325 324 324 327 325 325 321 327 324 323 323 323 328 328 329 329 330 329 329 332 326 333 332 334 332 332 331 330 328 328 327 326 326 326 326 325 328 331 331 331 314 322 310 314 317 317 319 322 320 310 302 308 308 309 310 309 309 310 308 308 309 308 309 308 309 310 310 311 311 311
301 302 303 303 303 303 303 304 306 307 309 310 313 316 317 319 323 325 325 324 323 326 328 324 324 323 323 326 327 327 329 326 327 327 325 312 291 291 297 325 331 302 299 309 315 329 331 330 328 328 329 330 333 335 309 306 306 304 305 306 308 309 306 307 300 300 306 311 311 310 310 310 310 310 310 308 309 309 309 309 308 304 310 310 309
300 300 301 302 302 303 303 303 304 306 306 308 311 312 313 315 317 321 325 326 325 323 322 321 320 320 317 323 325 325 328 327 326 328 329 322 318 311 293 290 291 292 292 293 299 304 309 314 328 333 328 316 317 304 301 303 302 302 303 303 304 301 299 299 299 307 312 309 309 308 309 311 310 311 310 309 309 309 305 308 307 308 310 308 303
Wind_Speed
7 5 6 7 10 5 9 8 8 7 6 6 7 6 9 11 13 14 14 12 9 7 1 4 3 4 6 4 8 9 9 9 10 9 10 9 11 10 10 9 8 8 9 9 8 7 5 7 7 7 7 6 6 7 6 7 6 5 6 4 5 5 4 4 5 1 1 1 1 3 3 3 4 3 3 3 3 3 8 1 2 0 6 5 3
8 7 6 5 8 6 7 7 7 7 5 5 6 6 5 13 11 12 10 10 13 14 13 11 11 8 9 11 11 10 10 10 11 10 10 9 11 11 10 11 9 8 8 10 8 8 6 7 8 8 8 7 6 6 6 5 6 5 5 4 4 5 4 4 4 1 2 1 2 1 2 4 7 4 2 2 3 3 10 5 1 3 1 6 1
11 9 7 5 9 9 6 6 5 6 6 8 7 6 6 12 10 11 10 10 11 12 10 9 10 10 9 9 12 10 10 8 8 8 10 8 9 10 9 11 9 7 7 8 8 7 6 5 7 9 7 7 7 7 6 5 7 6 6 5 4 4 5 4 5 5 2 4 3 0 2 2 2 0 2 3 3 3 9 10 5 4 5 1 5
11 11 10 7 7 11 9 8 8 8 9 9 9 8 6 10 11 11 11 9 11 13 14 12 10 7 0 3 7 9 10 7 8 6 8 8 9 9 10 10 9 8 8 7 7 7 6 6 5 9 6 7 7 7 6 7 7 6 7 6 5 5 5 4 5 4 3 1 1 3 2 1 1 2 3 3 4 5 4 14 8 4 5 5 1
11 10 11 12 8 6 9 9 8 7 9 10 9 8 6 11 13 13 11 11 12 15 14 11 9 6 3 1 6 8 4 8 7 8 9 8 9 9 11 11 10 9 9 9 8 8 8 6 6 8 6 7 7 7 7 7 8 7 8 7 7 6 5 4 4 5 4 3 2 1 2 2 1 2 2 3 5 3 4 10 15 11 6 4 4
11 13 12 12 12 8 6 8 7 7 8 8 7 8 8 9 14 14 11 10 11 12 15 12 9 6 8 8 4 2 6 8 12 12 10 10 11 8 11 11 10 10 10 10 9 8 8 7 7 7 8 6 8 7 7 6 7 9 9 7 7 6 2 2 4 5 5 5 4 2 1 1 0 1 1 0 2 1 5 6 14 15 10 5 3
12 11 12 13 11 12 11 10 11 12 10 8 8 7 9 9 15 14 12 10 10 11 14 10 5 1 5 9 12 14 9 9 7 10 11 10 9 9 10 11 11 11 11 10 9 8 7 7 6 7 8 5 8 7 7 8 7 9 7 7 6 5 4 3 1 5 3 3 3 3 3 2 2 1 1 2 1 1 0 3 7 13 14 11 6
12 12 12 12 13 12 13 13 13 12 10 9 9 8 10 11 14 13 10 11 10 10 13 11 10 4 1 6 5 7 9 4 9 9 9 11 10 11 10 10 11 10 11 12 11 10 9 9 8 8 8 7 8 7 7 8 7 7 7 7 6 6 7 5 3 3 7 4 4 3 4 3 2 2 3 2 1 1 1 1 2 6 11 12 9
16 13 12 12 12 14 13 12 12 12 10 10 11 10 9 11 12 13 12 12 11 15 15 16 14 13 12 9 8 4 8 10 5 11 8 9 9 9 9 10 10 10 10 12 11 12 11 10 9 9 8 8 8 7 6 8 8 6 6 7 8 6 5 6 3 4 4 4 6 5 3 3 3 3 3 3 2 1 2 2 2 1 1 7 9
16 17 14 13 12 12 14 13 11 11 9 10 11 10 10 10 11 14 13 12 12 15 13 17 17 13 11 13 14 10 8 9 8 7 9 8 8 9 9 10 9 9 10 10 10 12 12 11 9 9 8 9 8 8 7 7 8 6 5 4 5 4 3 4 5 3 2 2 3 3 5 3 3 3 3 4 3 3 3 3 1 0 1 4 6
14 14 16 16 14 12 12 14 13 11 9 9 10 11 10 11 11 13 15 13 15 15 12 16 16 15 14 12 14 14 13 10 11 14 12 8 9 11 9 10 9 10 10 11 11 11 11 10 8 9 8 7 8 9 8 7 7 6 4 5 4 4 4 4 3 3 2 2 2 2 2 3 3 3 3 3 3 2 2 2 1 0 2 5 3
13 12 16 17 15 14 12 13 13 13 11 11 10 11 11 11 12 13 14 15 15 16 12 17 14 14 13 12 12 11 14 12 12 13 13 11 10 11 9 9 9 8 9 9 10 10 11 10 9 9 9 8 9 7 8 7 6 5 4 5 5 5 4 4 4 4 4 3 3 2 3 3 2 3 3 1 2 1 1 2 1 1 0 3 2
14 12 11 10 14 14 14 14 12 11 9 10 12 11 11 12 13 13 13 15 14 16 15 16 14 14 15 14 13 11 12 14 14 12 12 12 10 11 10 10 10 9 10 10 10 11 10 10 10 10 9 9 9 9 8 9 6 6 5 5 5 6 5 5 5 4 5 4 4 3 4 3 4 3 2 1 1 1 1 1 1 1 1 1 5
9 12 13 10 10 13 13 13 13 10 11 8 9 11 10 10 13 14 12 15 14 15 15 15 16 15 10 3 7 11 12 12 13 12 11 10 11 11 11 11 12 12 12 12 11 12 10 11 11 10 10 10 10 10 9 9 8 7 6 6 6 5 5 5 5 4 4 4 3 3 4 5 4 3 2 2 1 1 1 1 0 1 1 2 2
12 11 12 11 10 11 12 12 12 12 12 12 7 9 10 10 12 14 13 14 15 15 13 15 14 16 17 17 13 10 10 10 11 11 11 12 12 13 13 11 11 12 12 11 12 13 11 11 11 10 10 11 10 9 8 8 8 7 7 7 6 6 7 6 6 5 4 4 4 3 3 4 5 5 3 2 1 2 2 0 1 1 2 1 2
14 12 11 11 12 11 11 12 12 12 13 10 11 8 9 10 11 13 12 14 15 16 18 14 13 12 19 20 18 16 11 10 9 10 11 12 13 14 14 13 11 11 12 11 13 14 12 12 11 11 10 10 10 10 8 8 8 8 7 7 7 5 5 5 5 5 5 4 4 3 4 3 2 2 1 3 2 2 2 1 1 1 1 1 2
15 14 12 9 8 11 12 13 11 11 10 10 12 11 11 11 12 14 11 17 16 17 19 16 12 14 19 18 17 16 14 13 12 12 13 12 12 13 13 12 12 12 11 12 13 13 12 12 12 11 11 10 10 10 9 8 8 8 6 7 8 5 6 6 6 4 4 4 3 4 4 4 3 2 3 2 2 2 2 2 1 2 1 0 1
20 18 13 12 7 9 9 10 12 11 10 8 9 11 12 12 13 14 12 19 16 16 16 14 14 15 17 17 17 16 15 14 13 13 13 13 13 13 12 12 13 12 11 11 12 14 13 14 12 12 10 9 10 10 9 8 8 8 7 6 7 6 5 5 5 5 4 4 4 4 4 3 3 5 4 3 2 2 2 3 2 2 3 0 2
17 18 16 9 6 8 9 10 11 10 9 9 9 9 9 10 12 13 13 19 17 15 13 13 14 13 15 17 18 16 14 12 11 11 10 12 16 14 14 13 12 11 12 12 13 14 13 13 12 11 11 10 10 10 9 8 9 8 8 6 7 7 5 4 4 4 4 5 5 5 4 4 3 4 4 3 2 3 2 2 2 2 4 1 1
19 18 18 15 6 10 12 11 11 11 11 11 12 11 12 11 12 12 11 14 14 14 14 14 14 13 15 15 16 15 15 13 12 11 8 7 7 7 8 13 11 10 10 11 12 14 14 14 12 12 12 11 11 10 9 9 9 8 8 6 7 8 6 5 4 4 4 4 4 5 5 4 4 4 4 4 4 3 3 2 3 3 5 3 2
18 18 18 19 10 8 9 8 10 10 11 10 11 12 12 12 12 13 12 16 15 15 15 14 14 15 16 17 16 15 14 12 12 11 8 9 8 8 5 13 6 10 10 11 12 13 14 14 14 13 13 11 11 10 9 9 9 9 9 8 8 8 8 6 5 5 5 4 5 5 5 5 4 5 4 5 4 5 3 1 2 2 1 3 3
19 17 17 17 16 8 9 7 8 10 10 11 10 10 10 10 12 13 11 15 17 14 14 14 14 14 16 15 17 15 15 13 13 13 11 6 9 10 11 10 11 10 10 12 14 13 13 15 14 14 13 12 12 11 10 9 9 10 9 8 7 8 8 7 7 6 7 6 5 5 5 6 5 4 4 4 5 5 5 4 4 3 3 2 3
20 19 17 16 18 11 7 10 9 11 11 9 7 7 9 10 10 12 12 17 14 15 14 13 14 13 12 11 13 13 13 13 14 13 13 10 9 9 8 10 9 11 11 11 13 13 14 14 13 13 13 13 13 12 11 10 10 10 11 9 8 8 8 7 8 7 7 8 6 5 5 5 5 5 4 4 5 5 5 6 5 4 3 3 1
19 17 15 15 15 14 5 7 10 11 8 8 7 9 5 5 4 2 6 14 14 13 12 13 17 16 14 12 11 12 12 14 12 12 14 13 9 10 7 8 9 11 12 12 11 12 12 13 13 14 14 13 13 12 12 11 11 11 10 11 9 8 8 8 7 8 7 7 8 7 6 4 6 6 5 4 5 4 3 4 4 4 4 3 3
18 18 17 17 15 13 6 7 10 11 10 8 10 10 8 6 1 3 4 6 18 17 16 14 14 18 17 16 15 12 10 14 15 14 13 12 12 11 10 10 8 8 10 13 11 11 12 13 12 14 14 13 14 13 13 12 11 10 11 10 10 9 7 8 8 7 7 6 8 8 7 5 6 6 5 5 5 6 4 3 3 4 4 5 3
17 17 17 17 16 14 8 7 14 14 13 12 10 10 10 12 11 10 8 7 3 7 15 12 11 16 15 14 11 11 11 11 9 11 14 13 11 11 11 9 9 11 10 10 15 11 11 14 13 14 13 14 13 13 13 13 11 11 10 9 10 9 8 8 8 8 6 6 6 8 7 7 6 7 6 5 5 6 5 4 4 3 3 5 5
17 16 15 15 15 15 14 12 13 12 11 11 10 11 9 9 10 5 1 5 7 2 8 11 13 13 13 14 13 14 12 12 12 10 10 10 10 10 11 11 10 11 12 12 14 16 12 14 14 14 14 14 14 13 13 12 12 12 11 10 9 9 9 7 7 8 7 6 6 6 6 6 6 7 6 6 5 6 5 4 5 4 2 5 6
15 16 16 17 15 14 16 12 14 13 10 9 10 10 13 12 14 10 8 8 6 10 4 7 11 13 11 13 12 13 15 14 12 11 11 10 10 10 11 11 10 11 11 10 15 20 15 14 13 13 13 13 13 13 13 13 11 11 10 9 9 9 8 8 6 7 7 6 6 6 5 5 5 6 6 6 7 7 6 4 5 4 4 3 5
14 15 15 15 14 12 14 15 12 9 10 7 8 11 11 9 16 17 15 12 10 10 11 10 7 10 10 11 10 10 10 11 12 12 11 11 10 10 9 9 10 10 9 10 12 16 16 16 13 14 13 13 12 12 11 12 12 10 10 9 9 9 8 8 7 7 6 6 5 6 5 5 5 6 8 7 6 6 6 6 5 4 4 5 4
8 13 14 14 15 14 13 14 13 11 11 9 10 10 9 9 14 13 9 10 7 9 15 15 13 10 11 12 12 12 13 11 11 12 10 11 10 10 9 9 9 7 6 3 3 6 12 11 13 14 13 12 11 10 12 17 14 10 10 9 8 8 8 7 7 7 6 5 6 5 5 9 11 12 12 13 12 12 10 7 4 2 5 6 5
16 10 14 14 14 15 15 14 13 12 12 10 10 9 8 11 11 15 13 16 12 15 12 11 12 11 12 12 11 12 12 13 12 10 10 10 9 9 9 9 6 2 2 2 5 8 8 11 13 13 12 11 10 9 17 17 18 16 11 9 8 7 8 8 6 6 6 5 5 5 7 10 11 10 10 13 13 13 13 13 12 9 6 3 6
18 16 13 14 14 15 15 14 13 13 11 12 10 8 8 9 15 17 14 14 11 10 13 12 11 11 11 13 12 11 11 13 12 13 10 11 8 9 9 6 5 5 8 5 4 9 9 9 13 10 9 10 10 11 18 17 16 17 13 10 8 6 7 7 7 7 6 5 5 7 6 7 7 9 9 9 10 12 13 12 11 10 10 10 8
18 18 16 13 14 15 14 13 13 12 12 13 10 8 8 9 16 20 10 8 7 7 8 10 11 9 7 3 3 5 12 11 10 11 10 8 8 8 8 7 7 9 10 8 10 10 9 9 12 13 10 9 8 14 17 17 15 15 13 11 8 7 7 7 6 6 6 6 5 8 7 6 7 14 10 9 9 8 9 12 12 11 8 9 9
19 18 18 15 13 13 13 12 12 12 12 10 9 8 7 8 10 16 20 16 15 14 9 6 5 8 12 10 13 11 10 9 9 9 8 6 6 6 7 7 7 8 8 8 9 10 9 10 14 15 8 8 6 12 17 17 16 15 13 9 8 8 6 7 7 7 6 6 6 9 8 7 8 8 7 9 8 9 7 7 6 4 4 4 4
19 20 17 16 14 13 13 11 11 12 10 9 9 8 6 8 9 12 11 9 5 6 9 8 8 7 7 9 13 12 11 8 7 7 8 8 8 6 5 5 7 7 7 8 10 9 9 11 16 10 7 7 6 14 16 17 16 16 15 10 7 7 7 6 6 7 7 6 6 7 9 9 10 8 7 9 8 8 7 6 5 4 4 3 4
19 17 14 14 14 13 12 10 10 11 10 10 9 7 7 7 9 10 12 16 11 11 9 8 8 11 11 11 12 10 10 9 9 8 7 7 7 8 8 5 5 6 5 6 5 6 10 15 14 7 7 8 8 16 16 16 17 15 16 9 7 6 5 4 3 3 4 5 6 7 9 9 9 7 11 16 10 8 7 6 5 4 6 5 5
16 12 11 11 12 12 11 10 8 9 9 9 8 8 7 7 9 9 9 14 15 12 13 12 14 14 15 13 12 12 10 9 9 9 10 8 7 7 6 6 5 5 5 6 6 9 14 15 11 8 6 7 9 14 18 16 16 16 12 8 7 6 5 5 4 4 5 4 5 8 9 9 9 8 13 15 15 11 7 7 6 5 6 5 4
14 7 5 8 9 10 9 6 8 9 7 7 8 8 9 8 10 10 10 8 9 11 11 12 12 12 11 11 10 10 9 10 10 10 11 9 7 5 5 7 6 7 3 3 8 12 11 9 7 7 7 6 9 12 17 17 17 17 13 10 8 7 6 6 5 5 5 5 5 12 11 9 9 9 16 15 15 10 7 7 5 7 6 5 3
15 13 3 4 7 7 5 6 9 10 8 7 8 7 9 8 10 10 11 9 9 6 5 8 12 11 9 9 10 10 9 10 9 9 11 11 9 8 6 5 4 5 5 6 13 13 11 8 5 6 8 6 9 10 15 17 17 17 13 8 8 8 7 7 6 7 6 6 6 11 15 11 10 13 17 16 15 9 5 6 6 8 7 6 5
12 12 12 12 10 7 7 9 7 4 4 6 7 8 8 8 9 9 10 9 9 7 7 7 7 10 8 9 8 8 8 9 9 9 8 8 7 5 6 7 5 5 5 10 13 8 7 5 5 7 7 6 8 9 11 15 17 17 17 10 8 8 8 8 8 7 7 5 4 6 12 16 17 18 17 17 16 12 4 7 5 7 7 7 7
19 18 20 17 16 11 10 4 3 3 6 8 8 7 8 7 8 9 8 7 5 8 10 10 7 6 9 10 7 7 9 9 9 9 8 8 7 7 5 6 8 8 10 13 11 5 5 6 6 8 7 7 8 10 11 15 16 17 18 14 9 9 8 7 8 7 6 6 6 6 3 15 20 19 18 18 16 13 4 2 4 6 7 10 10
22 22 21 18 17 16 13 1 2 4 5 4 6 7 6 6 8 6 6 5 5 6 6 4 3 8 8 8 8 7 9 7 7 8 8 7 6 4 4 4 6 8 11 10 6 6 5 6 6 7 7 8 10 16 11 13 16 16 17 15 8 9 8 8 8 7 6 6 8 7 6 12 21 21 19 18 16 11 5 0 1 5 16 19 11
21 21 22 17 14 14 7 10 0 3 2 1 3 4 4 6 7 7 6 5 6 5 7 6 10 3 7 8 10 10 8 4 6 7 10 9 8 7 4 1 3 6 10 8 7 7 6 6 7 7 7 7 8 11 19 15 15 15 17 16 10 1 1 4 7 7 7 7 7 8 9 14 17 18 16 15 14 11 7 3 7 15 19 18 13
20 16 17 18 15 11 3 3 1 1 2 1 2 3 1 4 3 4 1 4 7 5 2 6 8 10 7 6 9 11 9 9 9 8 7 8 7 8 6 1 4 9 7 6 5 4 3 1 2 3 2 2 4 7 11 18 16 17 16 18 11 9 7 3 1 4 6 8 8 10 11 17 16 15 15 15 13 10 7 10 14 18 17 13 8
16 15 18 18 18 17 12 6 1 2 3 3 2 3 4 2 2 1 1 2 2 1 1 9 6 6 11 9 10 9 10 9 9 10 9 8 9 9 9 10 9 9 6 7 5 3 3 3 3 1 3 7 3 3 6 9 13 16 16 16 13 8 7 6 3 3 5 7 12 17 17 17 17 16 15 13 11 12 14 12 14 16 13 6 6
19 20 19 15 14 14 13 13 3 2 3 2 5 4 4 1 0 2 2 0 2 0 8 6 7 9 7 10 9 9 9 10 10 10 9 8 8 8 8 9 9 7 5 5 5 4 4 4 4 4 5 8 5 3 5 6 7 6 6 7 10 8 4 8 9 8 13 19 19 17 18 18 17 15 12 9 8 8 11 13 12 9 5 5 5
20 17 17 17 18 18 19 19 18 19 11 1 2 6 5 3 3 4 4 2 2 4 8 3 3 7 6 6 9 7 8 8 8 7 10 10 10 9 10 10 9 7 7 6 6 7 6 5 4 4 3 6 5 5 5 7 5 7 6 7 8 7 7 9 8 9 12 11 15 14 12 12 11 13 13 12 10 8 8 6 6 4 4 4 4
18 19 19 17 19 18 18 18 16 15 15 15 11 1 5 3 2 3 2 3 2 1 6 9 8 1 10 9 4 7 9 6 7 6 6 7 10 12 11 11 11 10 10 9 8 8 8 7 6 5 5 7 8 7 7 8 8 7 7 7 7 8 7 6 8 8 8 8 11 12 13 9 10 10 9 6 5 5 6 6 5 4 2 4 6
21 20 19 18 17 17 17 17 16 15 17 16 17 17 11 3 4 3 3 1 1 3 4 8 8 7 11 8 4 4 6 6 6 6 3 2 4 8 8 8 8 8 9 9 8 7 7 6 6 5 7 11 10 11 10 10 11 11 11 10 9 8 9 8 12 17 13 10 11 11 11 10 9 10 9 8 6 6 6 6 6 5 5 5 4
19 16 19 18 18 17 17 17 14 16 14 15 16 15 13 15 14 11 9 7 5 2 3 1 1 3 5 7 6 6 6 6 7 6 6 4 6 9 6 2 6 4 5 4 8 8 10 10 11 12 15 17 14 8 12 19 17 15 15 16 15 14 13 15 19 22 17 13 12 12 11 11 10 9 9 8 8 7 7 6 6 6 6 5 5
19 21 23 21 19 19 18 18 16 14 13 13 12 12 14 15 14 12 9 5 7 6 3 4 5 5 9 9 9 7 7 7 7 7 7 7 4 6 11 11 8 5 5 6 5 3 4 14 14 14 14 15 12 14 18 17 18 16 17 17 17 17 21 24 23 16 10 11 11 10 9 9 9 9 8 8 8 7 7 7 7 6 6 7 6
Wind_Direction
243 249 221 192 202 179 179 175 171 173 181 199 206 196 176 123 129 133 149 180 176 129 280 312 311 154 153 208 236 176 188 171 170 176 181 174 167 174 177 167 191 184 174 159 170 175 160 160 154 155 162 180 177 185 187 191 188 161 174 206 189 204 238 235 255 190 113 285 275 253 226 204 215 209 208 188 207 117 121 200 318 265 132 141 195
238 243 256 204 182 197 167 171 165 170 190 212 215 207 182 130 141 146 159 177 171 171 178 189 194 199 181 178 204 186 190 179 170 172 179 171 166 170 178 166 189 187 174 154 171 179 158 164 152 163 175 181 170 184 197 191 164 160 179 210 195 191 222 216 231 168 167 203 265 266 228 231 217 204 211 224 168 152 125 139 314 308 221 123 81
214 233 240 215 179 192 155 165 168 184 193 209 215 203 181 140 144 146 159 167 175 171 181 190 199 192 181 194 194 183 184 175 170 159 168 168 164 164 171 170 170 181 178 161 165 171 167 170 161 170 174 175 161 186 195 190 160 171 190 190 192 209 213 211 216 171 201 180 216 156 268 295 57 36 167 206 189 172 121 131 155 284 314 101 130
205 205 228 248 194 190 180 174 182 187 198 204 203 200 180 151 148 154 162 166 171 178 180 186 192 195 196 307 252 192 168 163 163 143 165 162 168 155 162 169 163 175 180 171 167 166 179 185 175 172 178 174 165 176 188 184 162 182 191 197 190 206 200 226 188 164 194 86 281 193 211 173 245 162 220 220 205 166 149 135 143 122 288 300 115
206 206 200 225 235 200 187 182 183 197 201 199 196 193 185 162 154 158 163 173 178 183 183 175 174 151 132 78 342 322 311 161 167 161 173 174 174 162 166 168 173 169 179 176 174 174 182 192 195 171 186 169 165 178 184 190 172 191 193 197 197 199 194 205 185 169 174 188 240 328 291 224 184 169 212 222 181 168 176 128 137 157 191 257 263
211 202 206 206 215 223 203 185 190 210 208 197 193 189 182 162 163 164 169 173 180 177 175 172 181 171 161 162 148 103 231 227 180 170 173 177 185 172 163 170 175 172 175 177 176 177 185 199 199 174 183 170 170 179 181 195 179 190 198 196 208 212 225 200 185 180 174 186 206 230 330 255 58 294 293 126 234 201 178 163 135 152 151 176 277
223 210 201 206 205 209 210 203 200 210 212 194 192 191 183 171 163 167 172 175 172 171 168 151 96 160 208 196 173 164 175 243 206 166 172 177 178 181 163 174 183 173 174 171 176 173 189 206 211 179 180 175 174 179 187 193 194 193 195 194 197 205 204 240 239 160 152 189 194 217 229 222 233 290 249 359 168 191 348 161 142 144 141 144 190
227 215 210 204 205 204 210 205 203 206 207 198 194 195 187 184 166 166 167 170 171 162 153 145 153 141 295 297 224 148 141 226 278 188 167 170 173 177 168 175 184 177 168 176 175 173 188 203 210 183 179 185 180 193 191 185 202 194 199 181 192 191 178 193 222 174 166 195 204 198 207 237 255 263 256 229 284 287 189 41 20 127 147 144 159
210 217 213 214 207 203 208 211 202 201 202 195 195 196 193 189 174 168 164 161 165 157 162 169 176 168 169 182 223 198 164 166 241 288 182 168 167 171 166 177 183 183 176 177 172 173 184 200 200 185 177 185 185 199 198 185 198 204 190 177 184 192 162 179 193 220 192 185 167 204 204 197 208 214 248 220 228 247 261 170 177 187 93 128 135
211 207 210 213 216 208 204 210 208 200 202 195 189 192 192 187 188 168 167 166 162 163 164 174 174 168 185 184 182 179 179 162 154 245 259 163 174 177 171 181 184 180 180 178 182 178 181 193 198 186 179 184 187 198 198 187 192 208 193 172 154 162 161 164 186 209 225 229 178 176 173 184 209 255 212 214 207 203 248 276 94 106 139 60 86
215 205 200 205 210 215 202 206 209 205 202 196 188 189 186 187 193 183 169 166 163 169 165 175 176 172 179 187 187 173 175 178 174 186 221 193 178 179 184 181 187 185 181 182 187 182 177 187 194 188 182 181 194 192 197 193 189 197 175 162 168 164 164 183 177 199 204 226 212 190 194 187 206 196 220 194 191 210 224 257 161 192 141 143 175
228 219 209 198 201 207 206 207 207 206 200 198 190 187 188 187 192 195 173 168 167 176 171 176 172 173 175 185 188 182 174 175 187 194 188 186 182 180 182 181 192 186 185 186 185 185 172 180 192 192 187 187 195 197 189 196 181 186 174 168 172 173 168 169 184 195 208 216 227 201 193 219 214 219 257 182 151 186 134 306 1 316 74 104 141
231 220 225 205 194 199 204 208 206 202 204 197 191 186 186 187 190 198 182 169 165 172 173 168 171 176 182 182 185 183 186 183 188 193 186 184 182 180 182 183 187 188 191 190 184 188 170 178 189 192 191 193 194 198 188 188 183 174 184 174 167 173 178 181 184 200 195 202 203 203 205 200 214 240 265 285 119 118 128 52 355 124 188 190 169
270 230 213 216 197 195 199 203 202 202 211 207 190 183 185 188 189 195 190 170 161 164 167 163 176 180 167 221 214 189 193 190 188 192 187 181 176 183 192 188 186 191 190 191 182 183 180 183 189 194 190 192 194 198 190 185 174 174 178 178 177 174 177 190 190 198 207 209 201 202 196 200 224 222 199 133 163 114 81 140 236 266 219 251 161
247 253 237 212 204 194 195 197 197 201 207 210 207 188 181 193 190 192 195 169 160 154 160 168 177 175 170 181 200 228 204 196 191 189 188 182 180 184 195 192 191 190 192 189 178 183 184 182 187 193 193 194 196 195 193 180 173 168 174 173 177 179 180 183 182 196 201 206 203 216 233 203 198 204 171 174 125 123 142 173 124 353 342 292 302
269 252 240 215 201 196 195 195 192 198 201 201 209 203 187 196 195 191 194 143 153 158 173 175 172 167 182 183 190 196 201 195 190 192 194 187 184 187 192 194 191 190 189 187 183 183 183 181 184 193 197 195 197 197 191 181 171 169 166 170 185 173 178 179 179 181 200 200 207 197 218 238 208 200 107 92 115 142 171 143 140 161 58 345 15
277 266 264 247 218 205 194 187 189 191 193 195 202 205 197 195 197 196 174 156 157 172 178 183 174 177 184 187 188 191 197 190 188 196 196 192 190 189 192 196 192 188 187 187 181 183 181 178 184 190 197 194 193 195 193 181 172 169 170 169 178 177 177 187 171 185 188 197 196 202 204 203 228 127 109 136 166 173 146 116 126 118 95 182 62
308 287 267 268 225 223 194 184 184 186 190 195 200 200 196 195 199 199 167 161 165 178 181 181 178 178 185 189 191 194 198 197 189 192 195 196 193 189 193 197 192 187 186 184 181 181 180 180 180 188 195 188 190 192 190 183 173 170 180 169 172 179 180 172 169 171 189 186 193 205 191 202 193 134 159 166 187 149 138 143 166 140 132 118 81
310 311 287 256 264 229 209 190 181 182 193 204 212 208 202 197 197 203 180 168 168 178 178 177 177 181 188 190 191 193 198 202 201 201 199 207 196 190 193 195 187 186 184 185 181 181 179 179 177 184 188 189 187 191 190 186 176 170 178 174 167 178 176 171 171 172 193 182 189 197 193 194 176 156 161 168 179 147 132 141 126 116 117 129 138
308 307 308 285 270 257 219 184 180 184 193 204 212 209 206 197 198 206 172 169 166 177 172 177 180 183 188 190 192 191 195 202 207 210 197 210 307 293 218 190 187 184 184 187 181 182 180 177 178 180 186 188 185 188 190 188 175 171 176 174 172 175 181 174 173 178 182 194 192 196 191 189 174 169 173 174 166 145 144 173 145 157 145 148 140
298 302 302 298 269 264 244 196 183 187 198 202 203 201 200 196 197 198 183 174 174 179 175 174 179 184 178 186 190 191 194 200 211 217 202 124 178 219 299 304 251 187 187 187 187 186 181 178 178 181 184 187 184 183 189 190 176 172 171 178 180 174 180 174 182 186 188 189 202 198 196 188 181 176 177 165 158 141 162 151 81 92 108 140 146
290 293 296 300 286 256 269 233 196 194 199 205 198 199 195 199 199 200 177 178 182 181 178 177 178 172 175 175 186 190 192 194 202 209 217 173 165 200 191 197 265 250 197 193 189 189 185 180 180 181 181 185 185 183 186 191 178 175 169 177 183 177 179 181 180 206 183 190 190 204 202 188 183 188 176 168 165 159 150 144 152 179 167 144 131
286 287 292 293 293 266 250 253 217 203 199 197 182 196 198 173 189 201 171 181 187 185 180 176 173 165 162 155 164 173 181 186 192 202 211 197 170 223 217 184 179 263 250 200 193 190 186 181 180 179 179 182 185 184 184 187 181 178 172 176 180 180 183 182 183 200 195 182 191 199 211 186 178 185 180 186 159 165 168 173 163 179 155 130 124
282 285 283 285 288 271 257 265 233 196 186 191 197 197 153 217 145 99 193 178 181 195 178 168 178 176 168 153 158 169 165 174 188 199 203 200 190 179 205 213 189 184 245 241 203 195 185 184 181 179 180 181 183 181 182 187 181 179 180 174 180 183 181 184 188 196 205 181 186 192 207 198 174 181 179 185 163 162 179 164 156 157 124 142 161
282 283 286 286 288 264 251 268 256 207 196 199 190 198 152 117 116 213 223 192 182 192 186 169 168 174 173 167 173 167 166 177 185 191 193 196 192 187 189 204 200 198 201 256 231 196 188 189 184 181 181 181 182 179 181 185 180 181 181 179 178 187 185 184 189 201 202 189 185 188 191 203 174 175 182 180 167 170 172 170 172 156 152 159 131
280 282 287 288 287 280 208 220 253 226 207 197 189 186 167 157 188 190 209 253 134 250 185 163 153 166 165 166 168 165 171 175 184 194 193 193 192 188 188 200 193 199 206 214 251 211 195 191 188 182 183 180 179 179 181 184 182 180 182 180 179 183 189 186 189 203 204 193 191 183 184 193 181 179 184 182 172 173 170 165 153 158 159 134 126
289 285 284 286 285 291 271 195 241 239 203 194 185 168 180 160 142 114 26 254 155 88 286 175 163 159 169 170 169 178 181 182 183 194 198 194 193 191 187 187 192 202 200 201 233 234 203 195 190 184 183 179 180 179 180 182 185 182 181 182 176 184 183 187 191 199 206 195 194 186 185 186 185 181 181 177 161 158 174 175 165 155 157 127 143
279 282 280 279 283 287 283 235 221 240 223 200 191 180 181 174 150 153 164 203 163 166 220 287 178 167 162 169 172 176 180 181 183 187 194 197 189 193 199 194 187 192 200 206 220 228 206 197 191 186 183 178 179 178 178 181 185 179 182 177 181 184 182 184 193 197 201 195 191 186 182 187 186 175 176 167 156 159 179 174 148 144 152 147 145
280 277 280 283 282 279 287 265 239 239 233 210 200 196 191 161 144 162 177 201 168 161 172 199 244 180 168 175 175 172 167 172 177 180 180 184 189 193 200 208 204 197 182 197 234 252 216 194 190 185 183 176 180 179 181 179 177 176 176 179 182 187 178 184 191 199 199 196 190 183 170 193 186 140 135 123 128 144 168 147 153 154 153 149 148
279 284 279 276 278 277 273 276 238 231 238 212 209 209 181 181 140 148 160 202 182 167 178 182 187 186 177 178 175 173 177 176 177 183 177 179 188 188 193 210 215 205 186 131 291 272 301 257 194 185 179 175 177 177 182 174 172 172 170 175 181 183 183 186 188 191 201 198 189 179 170 136 121 122 115 109 101 89 81 99 106 114 156 153 162
302 275 281 274 268 271 274 278 254 223 229 233 211 204 189 183 133 128 162 195 186 181 186 186 179 183 182 180 172 176 174 172 176 182 179 181 178 181 185 198 208 115 34 153 193 262 212 264 252 190 173 171 174 175 171 165 164 160 162 172 180 182 182 188 185 188 193 195 196 141 116 119 115 105 103 108 107 103 104 98 90 85 62 157 169
300 292 272 272 276 272 270 269 268 231 212 225 219 202 203 177 125 138 163 188 209 192 172 178 185 187 192 180 172 172 174 176 177 177 175 186 171 170 175 163 144 142 230 187 200 226 223 223 261 241 179 172 175 163 161 160 157 161 159 169 181 181 179 184 191 187 189 185 186 123 134 133 137 132 126 109 103 111 112 107 104 97 90 57 72
294 287 278 254 254 264 268 267 275 242 212 217 216 197 209 187 143 144 165 166 200 218 183 179 180 177 161 238 306 188 176 174 171 171 170 163 156 168 175 171 166 175 192 191 201 208 213 217 241 233 198 178 174 157 157 157 153 158 163 168 180 182 176 188 190 187 189 188 178 134 142 148 132 139 130 125 123 109 102 111 106 104 98 113 110
285 278 271 251 237 245 255 263 276 257 215 214 213 198 209 176 160 148 154 164 182 200 197 183 181 150 180 173 166 214 218 180 157 152 147 133 149 171 178 171 166 173 183 190 210 215 210 216 227 221 190 177 148 163 156 156 154 156 162 170 175 173 180 188 192 190 192 192 176 144 153 143 138 150 140 133 130 123 127 120 127 129 120 126 107
282 282 263 249 230 227 243 252 264 263 217 211 215 203 206 176 164 161 140 119 127 156 157 172 174 198 194 170 179 186 184 168 145 140 144 156 164 159 160 176 170 172 181 184 199 209 215 220 229 208 179 174 155 160 157 158 158 158 161 170 181 173 182 187 191 193 185 179 181 156 154 141 153 155 150 145 136 142 137 139 153 155 140 93 71
304 287 258 238 220 216 229 237 248 267 219 203 211 200 206 184 162 166 146 140 173 194 172 166 172 189 199 192 187 187 182 171 156 147 147 154 158 165 165 169 160 174 183 185 195 207 211 222 220 198 174 179 158 162 159 159 159 161 160 173 182 172 162 178 191 183 176 177 179 144 143 144 155 151 142 143 141 143 140 143 159 146 100 95 68
307 288 253 226 205 209 223 230 248 261 222 197 205 196 191 181 158 155 175 165 172 175 169 176 199 188 185 191 185 183 179 171 165 156 169 166 168 175 157 140 157 167 193 193 200 218 220 212 200 197 182 169 160 175 163 162 161 160 158 179 182 176 170 173 178 192 190 184 170 145 151 150 156 148 144 143 146 146 148 152 166 140 122 111 119
341 308 238 192 185 206 218 227 258 257 227 193 198 192 185 185 156 164 180 173 178 181 178 174 185 191 179 179 178 175 163 165 171 171 172 173 173 164 170 157 176 152 141 222 222 223 227 214 195 191 197 169 166 179 171 165 164 166 169 179 183 182 176 171 183 197 190 185 179 150 155 149 152 145 149 143 156 153 154 160 167 128 131 118 116
9 349 53 141 173 190 216 255 260 237 211 189 194 187 180 181 160 169 174 181 170 189 216 194 178 173 184 170 178 172 158 168 168 171 173 171 173 174 174 163 179 147 160 213 223 212 209 198 193 195 206 179 161 178 184 169 167 172 173 185 184 192 184 176 185 193 195 186 187 163 159 151 148 151 152 151 165 171 156 168 163 135 143 143 155
4 9 7 15 18 0 323 280 245 213 204 194 196 184 179 177 175 155 177 169 167 188 209 224 183 176 174 149 168 164 165 173 171 158 155 161 150 152 178 172 177 146 168 228 224 211 187 191 183 200 192 192 163 173 185 180 172 175 179 181 192 192 195 182 188 193 184 190 149 151 162 144 135 153 158 159 169 183 171 174 165 153 154 149 151
11 11 9 3 358 345 309 237 182 209 201 207 191 178 182 176 147 160 182 166 174 189 205 214 168 149 145 151 160 180 168 176 173 160 150 151 160 170 184 191 188 177 185 219 223 192 188 196 193 198 199 194 165 167 180 182 183 180 184 182 192 196 195 183 189 198 182 164 132 128 115 144 148 157 162 164 172 171 96 139 152 183 166 150 147
7 9 8 358 343 335 323 50 265 204 218 197 184 161 153 135 155 164 146 163 201 226 239 94 141 155 170 170 167 158 159 161 159 154 147 158 165 154 153 186 221 200 201 197 191 195 207 205 202 195 196 198 162 169 165 190 185 186 184 190 190 197 193 185 185 197 181 152 146 136 140 157 153 160 163 169 163 151 152 358 124 121 131 142 148
9 6 352 347 322 328 305 295 100 351 5 198 94 115 132 164 158 153 160 187 216 218 234 159 149 178 179 172 161 158 161 136 146 139 155 166 162 156 136 164 247 224 214 188 185 196 202 204 205 206 200 183 154 170 170 172 189 187 191 192 196 105 30 185 194 184 165 151 142 135 139 152 152 154 154 149 142 140 136 129 147 140 145 148 145
2 357 349 341 337 317 283 192 5 141 265 45 73 157 132 65 105 67 93 197 201 247 120 47 141 184 170 162 160 159 170 173 162 153 158 155 160 159 146 105 266 236 196 168 173 176 186 226 298 292 325 10 140 157 174 174 176 190 192 197 170 72 58 58 47 162 158 149 134 135 148 149 141 139 139 136 135 130 135 143 143 146 150 151 149
360 357 350 349 352 342 322 308 225 231 173 200 163 106 83 113 66 55 54 239 152 191 82 107 334 288 177 175 170 162 168 169 166 161 157 166 170 174 174 177 213 246 218 183 189 169 120 109 134 73 322 295 294 145 139 186 179 187 189 197 164 112 55 46 93 103 98 113 126 133 135 136 133 132 130 120 118 129 140 142 149 150 147 143 148
1 4 356 352 357 8 357 330 215 256 208 149 146 126 130 107 281 231 183 44 316 181 79 66 133 256 235 169 159 165 170 171 161 165 173 176 168 173 180 185 191 200 219 192 162 158 149 140 147 141 168 240 206 168 156 157 171 168 190 186 162 158 105 64 61 83 109 115 121 126 127 126 125 128 128 131 134 142 143 144 151 153 146 148 156
4 359 357 4 6 9 2 2 2 359 340 277 197 141 147 161 222 241 205 198 252 91 101 117 255 265 258 187 154 162 159 168 173 164 169 166 179 187 198 187 179 179 195 195 181 165 150 153 152 150 162 232 224 197 158 159 160 157 163 140 134 126 117 106 96 102 97 103 118 125 132 128 115 113 104 111 118 126 121 136 164 163 167 179 196
7 5 5 9 14 5 5 3 3 351 347 355 333 240 147 131 180 193 98 92 76 326 120 148 181 329 307 285 174 132 151 158 164 169 176 178 174 186 190 178 180 182 186 190 189 179 173 164 171 167 181 218 211 207 179 174 168 161 149 146 148 149 156 150 123 113 100 107 109 101 98 97 105 102 110 119 133 149 144 157 173 181 138 76 92
8 9 9 13 7 8 4 3 1 356 356 355 7 2 354 324 214 186 119 81 360 284 119 154 184 184 209 238 209 175 171 162 169 173 138 58 229 208 185 180 199 195 196 193 195 191 166 166 169 166 187 222 214 206 199 169 163 162 155 154 159 165 160 141 125 118 107 108 112 117 125 136 142 140 142 148 154 159 163 175 177 175 139 149 136
5 7 14 13 14 11 7 5 3 2 356 359 2 1 359 6 3 3 14 5 313 229 89 215 239 241 236 211 213 203 195 184 179 179 145 107 40 55 33 185 168 19 354 253 193 193 186 183 191 201 204 212 215 205 137 143 147 147 155 163 165 164 142 121 128 134 135 138 145 145 154 147 145 148 152 157 162 164 169 180 182 166 156 157 148
1 9 10 12 11 11 10 8 7 358 359 1 359 5 1 2 356 350 345 18 13 26 293 250 224 227 234 209 198 202 199 189 194 183 165 155 132 48 48 54 62 50 34 29 65 350 246 190 186 200 207 217 192 134 141 140 140 148 156 160 155 136 128 135 135 126 125 138 146 144 148 150 150 153 159 160 164 166 173 177 184 174 166 166 146